RH
66 63 62 61 60 60 58 59 56 56 57 59 62 65 67 69 72 74 75 75 74 72 69 68 68 67 66 66 70 74 71 67 67 68 68 68 67 69 68 72 78 75 73 72 71 69 66 64 63 61 60 59 59 57 55 53 52 51 50 50 50 51 51 50 49 48 48 48 48 49 48 47 46 46 45 43 40 38 38 38 38 37 36 35 35 35 35 37 39 39 38 36 36 39 43 44 47
67 65 62 60 60 60 57 55 52 51 50 52 57 59 63 66 69 72 72 73 74 72 70 69 67 66 65 65 68 69 69 69 67 65 64 64 66 68 67 69 71 69 67 68 68 66 65 63 59 57 55 55 54 52 51 51 51 49 48 49 49 50 50 49 48 47 47 48 48 47 46 45 45 45 45 44 43 41 41 40 39 38 37 37 37 38 39 40 40 39 38 38 39 42 44 45 47
65 64 61 60 61 61 57 53 49 48 47 48 51 53 59 63 64 66 67 70 71 70 70 70 69 66 66 67 69 68 68 68 63 61 62 62 64 66 65 66 66 64 61 62 63 63 63 62 59 57 54 52 50 49 49 50 49 47 47 47 47 48 48 48 48 48 48 49 48 47 46 46 46 46 46 46 45 45 45 44 43 42 41 39 39 40 41 41 41 41 41 42 42 43 44 46 48
61 60 60 61 62 58 54 52 49 46 45 45 47 48 51 55 57 60 61 65 66 67 69 71 71 69 68 70 69 68 68 66 61 57 60 60 61 63 64 63 63 62 60 59 59 59 60 61 59 55 52 50 49 48 47 47 46 45 45 45 44 44 46 46 47 48 48 49 48 48 48 49 49 48 47 47 47 47 47 47 46 44 42 42 42 43 43 43 43 44 44 44 43 42 43 46 48
60 58 59 60 58 53 50 52 50 46 45 43 45 47 45 45 47 50 53 57 58 61 66 70 72 71 71 70 67 66 64 65 60 55 57 58 59 61 62 62 61 62 61 59 59 59 59 59 56 52 50 48 47 47 46 45 44 42 43 44 44 44 45 46 47 47 48 48 48 48 49 50 49 49 48 47 47 47 46 45 44 44 44 45 47 48 48 47 47 47 46 45 44 44 44 46 48
61 60 59 58 56 52 49 48 45 44 44 41 43 45 43 40 41 43 46 48 49 53 58 64 67 68 71 69 65 63 61 61 57 55 56 56 57 58 59 60 60 59 58 56 57 57 56 56 53 51 49 47 46 45 45 43 42 42 42 43 45 46 46 47 47 46 46 46 47 48 48 48 48 47 47 46 46 46 45 45 46 47 48 50 51 51 51 51 52 51 49 48 46 45 45 45 46
61 60 59 57 55 51 46 42 41 43 44 43 42 43 41 40 42 44 44 43 46 49 52 56 56 61 66 64 63 62 58 56 52 52 54 55 56 56 55 56 57 54 52 52 52 54 54 53 51 50 48 47 46 45 44 43 42 42 42 43 44 45 46 46 46 46 46 46 46 47 47 47 47 46 46 46 47 47 48 48 49 49 50 51 52 52 53 53 54 53 52 50 49 46 45 44 45
61 59 59 56 51 48 45 40 40 41 43 43 42 42 42 43 44 44 44 42 44 47 50 54 52 56 61 60 62 62 57 52 50 52 53 54 54 52 52 51 50 49 49 49 50 52 52 52 51 50 48 47 46 44 44 43 43 43 43 44 44 45 46 47 48 48 48 48 48 48 49 49 49 49 49 49 50 50 50 50 50 50 51 52 52 53 53 54 53 53 53 53 52 50 48 46 46
60 59 58 55 49 48 47 43 40 39 40 42 41 42 41 41 43 42 42 41 43 46 49 51 52 56 57 58 61 60 57 52 50 53 54 55 52 49 49 47 46 45 46 48 49 50 50 50 51 50 48 48 46 44 43 43 43 43 43 44 45 46 47 49 50 51 51 50 50 50 51 51 51 51 52 51 52 52 52 52 52 53 53 54 54 54 54 53 53 52 53 54 54 54 52 50 48
59 59 55 52 51 50 49 45 43 41 41 41 40 40 39 38 39 38 39 40 43 47 49 49 51 55 56 58 59 58 56 51 50 53 55 53 50 48 46 44 43 43 45 46 47 48 48 47 49 48 47 47 46 45 43 43 43 43 43 44 45 46 47 48 49 50 51 51 51 51 51 52 52 52 52 53 53 54 53 54 54 55 55 54 54 55 56 55 55 55 54 54 54 55 54 53 51
57 56 54 54 56 50 48 47 47 47 45 44 42 42 41 39 38 35 36 39 41 45 47 48 49 51 52 56 56 55 53 50 50 51 52 50 48 48 46 44 43 43 44 45 46 47 46 46 47 47 46 46 45 44 43 42 43 43 43 44 45 46 47 47 48 48 49 50 50 50 51 52 53 53 54 54 55 55 55 55 55 55 55 55 55 56 57 57 57 57 57 56 55 54 54 54 53
55 54 56 56 55 51 48 48 47 49 49 48 47 46 45 41 38 33 33 36 38 41 42 44 46 46 48 52 53 52 50 48 47 47 49 48 45 45 44 43 43 43 43 43 45 46 46 46 47 47 46 45 45 43 43 43 43 43 44 44 45 46 47 48 48 49 50 50 49 50 51 52 53 54 55 56 57 58 57 58 56 55 55 56 57 57 57 57 57 58 60 60 58 57 56 54 54
53 53 57 54 52 54 50 47 46 47 47 48 47 43 43 41 37 35 34 33 35 36 36 40 43 42 44 47 49 50 48 45 45 46 47 45 42 41 40 41 43 43 44 44 45 45 46 46 45 46 45 45 45 44 44 44 44 44 44 44 45 46 47 48 48 49 50 50 49 50 52 53 53 55 56 57 58 58 58 57 55 55 56 56 56 56 56 56 57 58 59 60 61 61 59 57 56
52 50 55 53 52 55 51 47 45 45 45 45 45 41 40 40 37 37 37 35 34 33 33 38 39 39 42 43 46 47 44 43 44 44 43 40 39 38 38 39 40 42 44 45 44 44 44 44 44 45 46 46 45 45 45 45 45 45 44 45 45 46 47 47 48 48 49 50 50 51 52 53 54 55 56 56 57 56 55 54 53 54 56 55 55 55 55 56 58 59 59 60 61 62 62 60 60
49 48 53 53 51 51 50 49 46 45 44 43 44 41 40 40 39 39 39 39 38 36 34 35 36 37 39 40 41 41 39 42 44 43 41 38 38 38 38 39 40 41 43 44 44 44 44 44 45 45 46 46 45 45 45 45 45 45 44 45 45 45 46 47 48 49 49 50 51 51 51 53 55 57 57 57 56 55 53 52 51 52 55 55 55 54 54 55 55 56 57 58 60 60 60 60 62
46 44 51 52 49 49 49 50 46 45 45 43 42 42 41 40 40 42 41 42 41 40 39 34 35 34 37 39 36 36 38 40 43 44 41 39 39 38 39 39 40 41 41 42 43 44 45 46 47 47 46 45 44 44 45 45 45 45 44 44 45 46 46 46 47 48 49 50 50 50 51 51 53 56 57 56 54 54 53 52 51 52 53 53 54 55 55 54 54 55 54 55 56 56 56 57 60
42 41 46 47 47 48 48 49 48 46 45 43 42 44 43 40 43 44 43 45 42 42 43 38 34 33 36 37 35 36 38 39 42 44 42 40 39 38 38 38 39 40 40 42 43 45 46 47 47 46 45 43 42 43 44 44 44 44 43 44 45 46 47 47 47 48 49 49 50 50 51 51 51 53 54 53 54 54 54 54 54 54 56 55 55 56 56 56 56 54 52 52 50 50 52 52 53
42 41 44 46 47 47 46 48 47 45 43 42 43 46 44 42 43 42 42 43 40 40 42 37 32 32 37 37 36 38 39 41 43 44 42 40 38 37 38 37 38 39 40 42 44 45 46 45 44 43 41 41 41 42 43 43 44 44 44 45 47 48 49 49 49 49 49 49 50 51 50 51 52 53 54 55 56 57 56 56 56 57 59 59 59 59 59 60 59 57 55 53 51 50 50 47 45
42 42 44 45 46 44 43 45 45 45 44 42 43 44 45 46 46 44 43 40 37 37 37 34 31 32 36 37 38 40 41 44 45 44 43 40 38 36 36 36 37 38 39 40 40 42 42 41 41 40 40 40 41 42 43 43 44 45 46 46 47 48 48 48 48 49 49 49 50 52 53 54 55 55 56 58 58 58 57 55 56 58 59 60 61 62 62 62 61 60 58 55 54 53 51 47 44
41 42 44 43 42 42 43 43 43 44 44 43 41 41 44 48 50 50 47 43 39 38 35 32 32 32 35 37 38 41 43 46 46 45 42 41 38 36 35 35 37 37 37 38 37 39 39 39 40 40 39 41 42 42 42 43 44 45 46 46 46 46 47 47 47 48 49 50 51 53 55 56 56 55 57 58 58 57 57 56 56 57 56 56 56 57 57 57 55 54 53 51 50 50 50 50 49
39 40 42 41 39 41 43 44 44 42 42 42 39 41 46 48 51 52 49 46 42 38 33 30 31 32 34 36 38 42 44 46 46 45 42 40 38 37 36 36 37 38 38 38 38 39 39 40 41 40 40 41 43 43 43 43 43 45 46 46 46 47 47 47 48 48 49 52 52 53 54 55 55 55 55 55 56 56 55 54 54 53 51 49 48 48 49 50 49 49 48 47 46 47 47 50 52
36 35 38 39 39 41 42 43 44 42 41 42 39 41 47 50 52 53 51 48 40 34 31 28 29 31 33 34 37 41 43 44 45 44 43 40 39 38 38 39 39 39 40 40 40 40 40 40 41 41 41 42 43 44 44 43 42 44 46 45 46 47 47 48 49 49 51 52 51 52 51 52 52 52 52 52 53 54 53 53 52 50 49 48 47 46 46 46 47 47 46 47 45 46 48 53 55
33 32 34 37 40 40 39 43 45 41 41 40 38 40 44 47 48 48 49 48 39 33 32 28 28 29 32 35 37 39 41 42 44 43 42 41 40 41 40 41 41 40 40 40 40 41 41 41 41 41 41 42 43 44 44 44 42 43 45 45 46 47 46 48 49 49 51 51 50 50 49 48 48 49 49 49 50 50 51 51 50 50 48 48 48 46 45 43 43 43 44 44 44 44 46 49 52
29 29 32 37 40 39 38 43 44 41 39 39 40 41 42 42 43 42 45 47 42 36 33 30 30 29 30 34 36 38 39 40 41 42 42 42 42 42 42 42 41 41 40 39 39 39 41 41 41 41 40 40 42 44 44 44 44 43 45 46 47 48 49 49 50 52 52 51 51 49 48 48 48 49 50 50 50 49 49 48 46 46 45 45 44 43 42 41 41 41 42 46 48 47 43 41 41
26 29 32 37 38 36 36 41 44 41 37 38 41 43 43 43 42 41 43 48 48 39 34 34 34 32 30 32 34 36 38 39 40 40 41 42 43 44 44 42 41 41 40 39 39 38 39 40 40 40 40 41 42 43 44 46 46 46 47 49 50 50 51 51 52 52 53 51 50 48 48 48 49 49 50 51 51 50 48 46 44 43 42 42 41 40 40 39 40 42 44 50 52 48 45 43 39
26 30 33 36 36 36 36 41 43 40 37 37 40 42 44 43 41 41 43 48 50 43 36 35 35 34 32 31 33 34 37 37 37 38 40 41 41 41 41 41 39 39 39 39 39 38 39 39 40 40 42 42 43 44 46 47 48 48 50 51 51 51 51 52 51 51 50 49 48 48 48 48 49 50 49 49 49 49 48 46 44 43 42 41 40 38 37 36 37 40 43 48 51 49 50 50 46
28 32 35 36 36 36 38 40 41 39 38 38 40 42 40 37 37 40 42 45 49 45 39 35 34 35 33 32 33 33 35 36 36 36 37 39 39 39 38 38 38 37 39 39 38 37 38 39 40 40 41 43 44 45 46 47 48 48 49 50 51 50 50 50 49 48 46 46 46 46 47 48 49 50 48 46 45 46 45 44 43 42 41 41 40 38 36 36 37 38 38 41 44 47 48 50 48
29 33 37 38 38 38 38 38 37 37 38 39 41 41 37 34 35 37 39 42 45 44 40 36 33 34 33 32 32 32 33 35 35 35 35 36 37 37 36 36 36 37 38 39 39 38 38 39 40 41 41 42 44 45 45 46 45 45 46 48 49 48 48 47 45 44 44 44 45 46 46 47 48 48 46 44 44 43 41 42 42 42 43 42 42 41 39 42 44 43 42 43 44 42 42 43 44
30 34 39 42 41 39 38 38 36 34 36 39 41 39 38 36 36 36 35 39 43 43 42 38 34 34 33 31 31 32 32 32 33 34 33 33 35 35 35 34 34 35 37 39 40 39 39 39 40 40 41 42 43 44 46 45 43 44 44 45 46 46 45 44 43 42 43 43 44 44 44 45 45 44 44 44 43 42 42 48 51 50 50 49 47 45 42 42 44 45 46 49 49 43 39 41 42
33 36 41 44 42 41 39 38 36 33 34 37 40 43 44 42 40 38 34 36 41 43 42 40 35 33 33 31 30 31 30 30 31 32 32 32 34 34 33 33 33 34 34 37 39 39 39 39 39 39 40 40 41 43 44 43 42 42 42 43 45 45 45 43 42 41 41 41 42 42 43 44 43 42 43 42 42 43 44 53 59 54 55 54 48 45 41 38 36 35 38 42 45 43 40 43 47
36 39 42 42 42 42 40 38 36 34 36 37 40 46 48 46 45 41 36 37 41 42 41 39 36 34 34 33 31 31 30 30 29 30 30 31 31 33 33 33 34 35 35 35 36 38 38 38 38 38 38 38 39 41 40 38 39 39 39 41 43 43 43 41 40 40 40 39 39 39 40 40 40 40 41 41 47 50 49 55 56 49 50 47 39 37 34 29 26 24 24 27 31 36 37 38 44
38 42 43 40 39 41 39 36 35 35 39 39 42 48 48 48 45 39 38 40 41 42 41 38 37 35 34 34 33 33 30 29 30 30 30 30 30 31 33 33 34 35 35 35 35 37 37 37 37 37 37 36 37 38 37 36 35 36 37 38 39 39 40 39 39 39 38 38 37 37 38 39 39 40 41 49 53 51 52 54 45 38 37 33 27 27 24 20 19 18 18 19 20 26 29 30 38
36 41 42 39 38 39 37 36 33 35 40 40 42 47 47 46 42 41 42 40 38 40 40 38 38 36 34 33 33 33 31 30 32 32 31 31 31 31 32 33 33 34 35 35 36 36 36 36 36 36 36 36 37 37 36 35 34 35 35 36 37 38 38 38 38 38 37 37 36 36 38 39 40 40 43 54 52 42 43 41 29 25 25 21 20 20 18 19 20 19 19 19 19 22 25 26 31
34 39 39 37 35 35 37 37 34 36 39 39 42 44 43 42 42 44 45 41 38 37 36 35 36 38 36 33 32 31 31 30 30 32 32 31 32 31 31 32 32 33 34 35 36 35 34 36 36 36 36 37 37 37 36 35 35 35 37 37 37 37 37 36 37 39 38 39 40 39 40 39 38 38 38 41 38 32 30 25 18 19 18 17 18 18 19 20 20 21 21 21 21 22 25 26 27
31 36 36 36 36 35 37 37 34 36 39 41 43 44 43 43 43 45 44 44 41 37 35 33 33 36 35 32 31 29 29 29 29 31 31 31 31 31 31 31 32 33 35 35 35 34 34 35 35 35 36 37 36 36 36 35 36 37 38 37 36 36 37 36 37 39 40 42 41 39 36 34 33 32 31 29 26 24 22 19 17 18 18 18 18 18 19 20 20 21 22 22 21 24 28 27 27
32 35 35 35 37 37 36 35 34 36 39 42 43 44 43 43 44 45 46 47 47 42 38 35 34 34 34 32 30 29 28 27 27 29 30 29 29 30 31 32 33 34 35 36 35 34 34 33 33 33 35 36 36 36 36 36 36 36 36 36 36 36 36 37 37 37 37 36 34 34 32 30 28 26 26 25 23 22 20 18 18 18 18 18 16 17 18 19 21 21 21 22 22 24 27 26 26
33 36 37 36 37 37 37 37 37 38 40 41 42 43 41 41 42 44 46 47 49 47 43 40 37 34 34 33 31 29 28 27 28 27 28 29 30 31 31 32 34 35 35 34 33 33 32 31 31 31 33 35 35 36 36 35 34 35 35 34 33 33 33 34 33 32 32 30 29 29 28 26 25 23 22 22 22 22 21 19 18 18 18 17 16 18 20 21 21 21 22 23 23 25 28 29 30
32 34 37 38 38 37 37 38 38 38 40 41 43 44 43 41 41 43 43 44 46 46 44 44 41 36 34 33 32 30 29 29 29 28 27 29 30 31 31 32 33 33 33 32 31 31 31 31 31 30 30 32 33 34 34 34 34 33 32 31 29 29 30 30 30 29 29 28 26 26 25 24 22 21 21 22 23 23 22 20 19 20 21 19 17 18 21 22 22 23 23 24 26 27 29 32 34
32 34 36 39 39 38 37 38 38 37 40 43 43 44 44 42 42 44 43 42 43 45 46 46 44 40 36 35 35 33 32 32 31 29 28 28 30 30 30 31 31 31 31 31 31 31 30 31 31 30 29 31 32 33 34 33 32 30 29 28 27 27 27 28 28 27 25 24 24 23 22 21 20 20 20 21 22 21 22 22 23 24 23 19 19 21 23 23 24 25 25 25 26 28 29 31 33
30 33 35 38 40 39 38 40 42 41 42 44 43 45 46 45 46 46 44 42 43 45 48 49 47 45 42 39 39 36 33 32 31 31 30 29 30 30 29 29 29 29 30 31 30 29 29 30 31 31 31 31 31 31 31 29 28 28 27 27 26 26 27 28 27 26 25 24 23 22 20 19 19 19 20 21 20 20 22 24 26 26 21 18 21 23 23 23 23 24 25 25 26 27 28 29 29
29 30 32 35 36 37 39 42 44 47 47 45 45 49 49 48 49 48 45 44 44 44 46 48 48 48 46 46 47 43 37 33 32 31 31 30 29 28 28 28 29 29 29 30 29 28 28 29 31 32 31 29 28 27 26 26 26 27 26 27 28 28 28 29 28 25 25 24 23 22 21 21 21 22 22 22 22 22 23 24 23 21 17 17 21 22 21 20 22 23 24 25 26 25 26 26 26
27 27 29 31 32 36 42 43 45 50 50 44 46 53 55 51 49 47 46 45 44 43 43 45 47 48 48 49 50 48 43 38 35 33 32 30 30 28 27 27 27 28 28 28 28 28 28 29 30 30 28 26 25 25 26 26 25 25 25 25 25 26 26 27 26 24 23 23 22 22 23 22 22 23 23 23 23 22 22 20 19 17 18 20 21 20 19 18 20 22 23 23 23 23 24 26 27
26 27 28 29 29 35 41 44 45 47 46 43 45 52 57 53 46 44 45 45 43 43 44 45 47 48 49 49 49 49 48 44 40 37 34 32 31 30 27 26 26 26 27 27 28 28 28 28 28 27 26 26 25 26 26 25 25 25 24 23 22 22 22 24 24 23 22 22 22 22 22 21 22 21 22 22 21 19 19 18 18 19 21 21 19 17 17 18 19 21 21 21 21 22 22 24 27
24 26 27 28 30 33 38 41 43 42 42 46 46 47 54 52 43 41 44 45 44 44 45 45 45 47 48 49 50 50 50 48 44 40 38 35 32 31 29 27 26 26 27 27 28 28 28 28 27 26 26 27 27 27 26 26 25 24 23 22 23 22 22 24 24 21 21 22 24 23 22 21 19 18 19 19 17 18 20 19 18 20 21 19 18 17 17 18 19 21 21 21 22 22 23 23 25
22 25 25 27 29 30 32 35 38 38 41 48 49 45 50 51 44 42 44 44 43 43 44 44 44 45 46 47 49 50 50 50 47 43 41 39 36 33 32 31 29 29 28 28 28 29 28 28 27 26 27 28 29 28 28 27 25 24 22 21 21 22 25 26 23 20 21 23 24 24 23 21 19 19 18 17 15 18 21 20 19 21 21 20 18 18 18 20 21 22 22 23 23 23 23 24 25
19 23 25 26 28 27 27 31 34 36 40 46 47 44 47 51 46 42 43 43 41 39 38 38 41 43 45 45 46 48 49 50 49 47 45 43 40 38 36 35 33 31 31 30 29 29 29 28 27 27 27 28 29 29 28 27 26 24 22 21 20 22 25 25 23 22 23 23 23 23 23 22 24 24 20 17 15 17 20 21 22 23 23 22 19 19 20 21 22 23 23 23 23 23 24 25 27
19 24 26 27 30 29 29 32 33 35 40 41 40 39 42 48 46 41 38 37 35 35 33 33 36 40 43 44 43 44 45 45 46 47 48 48 46 44 40 37 35 34 34 33 31 30 30 29 28 28 28 28 28 28 27 27 26 25 23 22 21 22 23 23 22 23 23 23 21 21 22 24 26 25 22 20 18 19 21 23 22 23 24 22 20 21 21 22 23 24 24 24 24 25 26 27 28
20 26 27 28 31 32 32 34 33 36 40 38 35 37 41 45 44 38 33 31 32 34 32 31 33 36 41 42 40 41 42 44 46 46 49 52 51 49 42 38 37 36 35 35 34 34 32 31 31 30 31 31 30 29 28 27 28 27 25 23 23 23 23 21 20 21 22 22 23 24 26 27 28 28 27 26 23 21 22 23 22 22 22 22 21 21 21 22 23 24 24 24 26 27 27 28 29
20 26 30 29 31 33 34 36 35 37 38 34 32 36 41 43 38 33 32 29 30 32 30 29 31 34 40 41 39 40 42 45 46 47 49 52 51 48 43 39 39 38 37 36 36 37 36 34 33 31 32 31 30 30 30 29 29 29 28 26 25 25 23 20 19 21 23 23 26 29 31 33 34 33 31 27 23 21 21 22 21 20 20 21 22 21 22 22 23 24 24 25 27 29 29 29 30
19 27 31 29 30 31 33 37 38 36 34 30 29 37 43 41 34 31 31 28 27 27 27 28 30 32 37 39 38 39 42 44 45 47 48 48 47 46 43 41 39 38 37 37 38 38 38 36 34 32 31 29 28 29 29 30 30 30 30 29 27 24 22 21 21 22 24 26 29 32 34 36 38 38 33 26 23 22 21 21 19 20 21 21 22 22 22 23 24 25 25 27 29 30 30 30 30
18 27 31 28 30 30 30 34 35 34 33 29 30 38 42 37 31 29 28 27 27 26 26 27 30 32 35 38 37 39 42 43 44 45 44 43 43 44 43 43 42 39 37 36 37 38 38 36 34 34 31 28 27 27 28 29 30 31 32 33 30 25 22 22 22 22 24 27 31 33 35 37 37 37 32 28 27 24 22 20 20 21 21 22 22 22 23 24 25 26 27 28 30 31 31 31 32
19 27 29 27 28 28 28 30 32 31 29 29 31 36 37 32 28 28 28 28 28 28 27 29 29 30 33 35 36 38 41 43 44 43 42 42 43 45 44 42 41 41 39 37 39 40 38 37 36 35 30 27 27 27 28 30 32 34 36 35 32 27 24 23 23 23 24 26 29 33 35 37 38 38 34 31 30 27 23 21 21 21 21 22 23 24 24 25 26 27 27 28 29 31 31 32 33
21 26 26 26 26 26 26 27 29 29 27 30 31 30 31 30 28 30 31 28 28 28 29 29 29 30 32 34 36 38 39 42 42 41 40 42 43 43 42 39 38 41 41 39 40 41 41 40 38 34 30 28 29 29 30 33 35 37 37 35 32 29 27 26 26 27 26 26 28 32 34 37 41 43 41 37 32 27 23 22 22 21 21 22 23 24 25 26 27 27 28 28 29 31 32 33 34
23 21 20 24 25 25 26 27 29 31 29 30 29 27 28 29 29 32 32 30 31 30 30 29 30 31 33 34 36 37 38 40 40 39 40 42 42 41 41 39 38 40 41 41 41 42 42 41 38 34 30 29 30 31 32 34 36 36 35 34 32 31 29 29 31 31 30 28 28 30 33 36 42 47 47 42 34 27 23 22 21 20 20 20 21 22 23 26 26 27 28 29 30 33 34 34 35
18 16 16 20 23 24 25 26 28 30 31 31 29 28 29 30 31 31 28 31 33 32 31 31 31 32 32 33 36 37 38 39 40 40 41 42 41 41 40 39 39 39 40 39 39 41 41 41 39 36 33 32 32 33 34 34 34 35 36 35 34 32 32 32 32 33 33 31 29 29 32 36 42 49 51 46 37 30 27 26 23 21 21 21 21 23 25 26 27 28 29 31 32 34 35 36 38
14 15 17 19 21 23 23 24 25 26 32 35 31 28 28 29 31 27 24 29 32 31 31 31 31 31 31 33 36 37 37 38 39 41 41 39 39 40 38 36 36 37 37 37 37 38 40 41 42 40 39 39 38 38 38 37 36 36 36 36 34 33 33 34 33 33 33 34 32 31 33 36 43 52 55 52 43 35 30 28 26 24 24 24 24 26 28 30 31 32 33 33 34 35 36 37 38
14 16 20 19 19 22 22 23 24 24 30 38 33 27 27 28 29 27 23 25 29 30 30 31 31 31 32 34 37 36 36 37 39 38 38 37 38 39 38 37 36 36 37 38 38 40 41 43 43 44 45 46 45 45 43 42 43 44 42 39 37 35 35 34 34 34 34 36 37 36 35 39 45 53 58 55 46 36 31 29 28 27 27 27 27 28 30 32 33 33 34 35 35 37 37 38 38
16 16 18 19 18 21 21 23 23 22 25 30 28 25 24 25 28 27 23 25 29 30 30 31 32 32 33 35 35 35 36 37 36 34 34 35 36 37 38 39 40 39 38 38 39 41 43 44 44 45 47 48 47 48 48 47 50 54 54 51 47 41 37 37 36 36 37 37 38 39 39 45 51 56 58 54 43 35 32 30 29 28 28 28 28 29 30 32 32 33 34 36 37 38 38 38 38